This is the latest recevied weather packets stored in our database for station/object N3EYQ. If no packets are shown the sender has not sent any weather packets the latest 10 day(s).
| Time | Temp. | Humidity | Pressure | Rain* | Wind** | Luminosity | Snow |
|---|---|---|---|---|---|---|---|
| 1777652972 | 16.11° C | 37% | 1011.6 hPa | 0 mm | - | - | - |
| 1777652372 | 16.67° C | 39% | 1011.6 hPa | 0 mm | - | - | - |
| 1777651772 | 16.11° C | 38% | 1012 hPa | 0 mm | - | - | - |
| 1777651171 | 16.11° C | 43% | 1012 hPa | 0 mm | - | - | - |
| 1777650571 | 16.11° C | 39% | 1012 hPa | 0 mm | - | - | - |
| 1777649971 | 15.56° C | 42% | 1012 hPa | 0 mm | - | - | - |
| 1777649372 | 15° C | 42% | 1012.3 hPa | 0 mm | - | - | - |
| 1777648772 | 14.44° C | 45% | 1012.3 hPa | 0 mm | - | - | - |
| 1777648171 | 14.44° C | 44% | 1012.3 hPa | 0 mm | - | - | - |
| 1777647570 | 14.44° C | 46% | 1012.7 hPa | 0 mm | - | - | - |
| 1777646970 | 13.89° C | 46% | 1012.7 hPa | 0 mm | - | - | - |
| 1777646370 | 13.33° C | 47% | 1012.7 hPa | 0 mm | - | - | - |
| 1777645770 | 13.33° C | 49% | 1012.7 hPa | 0 mm | - | - | - |
| 1777645170 | 13.33° C | 48% | 1012.7 hPa | 0 mm | - | - | - |
| 1777644570 | 13.33° C | 50% | 1012.7 hPa | 0 mm | - | - | - |
| 1777643970 | 12.22° C | 47% | 1012.7 hPa | 0 mm | - | - | - |
| 1777643370 | 12.78° C | 50% | 1013 hPa | 0 mm | - | - | - |
| 1777642770 | 12.22° C | 50% | 1013 hPa | 0 mm | - | - | - |
| 1777642169 | 12.78° C | 52% | 1013 hPa | 0 mm | - | - | - |
| 1777641569 | 12.22° C | 51% | 1013 hPa | 0 mm | - | - | - |
| 1777640969 | 12.22° C | 53% | 1013 hPa | 0 mm | - | - | - |
| 1777640369 | 12.22° C | 55% | 1013.3 hPa | 0 mm | - | - | - |
| 1777639769 | 11.11° C | 54% | 1013.3 hPa | 0 mm | - | - | - |
| 1777639169 | 11.11° C | 57% | 1013.3 hPa | 0 mm | - | - | - |
| 1777638569 | 11.11° C | 55% | 1013.3 hPa | 0 mm | - | - | - |
* Rain latest hour (hover to see other rain measurements)
** Current wind speed in m/s (hover to see current wind gust speed)